Weather in Arauca

Colombia     7°04′52″N   70°45′13″W
temp.,
°C
wind,
m/s
gust,
m/s
humid.,
%
clouds,
%
prec.,
mm/h
press.,
hPa
HPBL,
m
29 november, mon
mon2901:00+23n239397 1.9 100959
04:00+23n249650 2.1 1009119
07:00+24n249415 5.5 1011202
10:00+27ne3787100 5.8 1012589
13:00+28nne348199 8.8 1009869
16:00+27nnw2589100 2.2 1007281
19:00+24nw239476 2.4 101060
22:00+23nnw239410 0.0 101144
30 november, tue
tue3001:00+22nw2497100 0.0 101094
04:00+22nnw2597100 0.0 1009120
07:00+23n249380 0.0 1012143
10:00+29ne356966 0.1 1013894
13:00+31ne355769 0.1 10091866
16:00+30ene2469100 0.0 1007206
19:00+25n238076 0.0 100948
22:00+23nnw228519 0.0 101037
1 december, wed
wed101:00+23nw258592 0.0 100999
04:00+23ne2385100 0.0 100992
07:00+25n24835 0.0 1012133
10:00+29nne34656 0.0 1014991
13:00+32nne355545 0.0 10091933
16:00+30nne1370100 0.0 1007130
19:00+25nne22809 0.1 100917
22:00+24nnw2383100 0.0 101049
2 december, thu
thu201:00+24nnw248594 0.0 100985
04:00+23n248633 0.0 101090
07:00+24n288445 0.0 1012332
10:00+29ne476620 0.0 10131190
13:00+31ne4656100 0.0 10091803
16:00+27n2481100 0.3 100793
19:00+24nw238885 0.3 100961
22:00+23nw2292100 0.0 101042
3 december, fri
fri301:00+23nw239299 0.0 100870
04:00+22nne2293100 0.0 100935
07:00+24nne2487100 0.0 1011168
10:00+29nne346736 0.0 1011932
13:00+31ne245426 0.0 10081869
16:00+30ene246424 0.0 1006245
19:00+25ne227220 0.0 100833
22:00+25n11715 0.0 100911